Regional Weather Roundup
Issued by NWS Charleston, SC

Home | Current Version | Previous Version | Text Only | Print | Product List | Glossary On
Versions: 1 2 3 4 5 6 7 8 9 10 11 12 13 14 15 16 17 18 19 20 21 22 23 24 25 26 27 28 29 30 31 32 33 34 35 36 37 38 39 40 41 42 43 44 45 46 47 48 49 50
000
ASUS42 KCHS 310026
RWRCHS

REGIONAL WEATHER ROUNDUP
NATIONAL WEATHER SERVICE CHARLESTON SC
700 PM EST FRI JAN 30 2015

NOTE: "FAIR" INDICATES FEW OR NO CLOUDS BELOW 12,000 FEET WITH NO
SIGNIFICANT WEATHER AND/OR OBSTRUCTIONS TO VISIBILITY.

NOT ALL STATIONS ARE QUALITY CONTROLLED BY THE NATIONAL
WEATHER SERVICE. USE DATA WITH CAUTION...ESPECIALLY
DEWPOINT OBSERVATIONS.

SCZ027-030-031-034>040-042>050-310100-
...SOUTHEAST SOUTH CAROLINA...

CITY           SKY/WX    TMP DP  RH WIND       PRES   REMARKS
N CHARLESTON   PTCLDY    46  24  42 N5        30.23R
6HR MIN TEMP:  45; 6HR MAX TEMP:  59;

WATERFRONT PRK   N/A     52 N/A N/A NW6         N/A
MOUNT PLEASANT FAIR      48  27  43 NW6       30.22R
PINOPOLIS        N/A     52  36  54 NW9       30.11R
MONCKS CORNER  FAIR      48  23  37 NW3       30.23R
SUMMERVILLE    NOT AVBL
BEAUFORT MCAS  CLEAR     50  30  46 N7        30.22R
6HR MIN TEMP:  48; 6HR MAX TEMP:  61;

BEAUFORT ARPT  FAIR      50  30  46 N8        30.22R
HILTON HEAD IS CLEAR     50  36  57 NW3       30.24R
WALTERBORO     CLEAR     48  14  25 CALM      30.24R
ALLENDALE      FAIR      50  27  40 CALM      30.24R

...SOUTHERN MIDLANDS AND PEE DEE...

CITY           SKY/WX    TMP DP  RH WIND       PRES   REMARKS
GEORGETOWN     NOT AVBL
KINGSTREE      NOT AVBL
ORANGEBURG     CLEAR     49  18  29 N5        30.23R
6HR MIN TEMP:  49; 6HR MAX TEMP:  56;

BARNWELL       FAIR      45  30  57 W5        30.24S
AIKEN          FAIR      46  25  42 N6        30.28R
MANNING        FAIR      43  28  56 CALM      30.24R
COLUMBIA       CLEAR     48  18  30 NW3       30.25R
6HR MIN TEMP:  48; 6HR MAX TEMP:  55;

SUMTER         CLEAR     46  22  39 NW6       30.22R
FLORENCE       CLEAR     45  18  34 N9        30.22R
6HR MIN TEMP:  45; 6HR MAX TEMP:  54;

MYRTLE BEACH   CLEAR     46  21  36 NW9       30.21R
N MYRTLE BEACH CLEAR     47  19  33 NW8       30.19R
6HR MIN TEMP:  46; 6HR MAX TEMP:  54;


$$

GAZ063-065-086>088-099>101-113>116-118-119-134>141-150-310100-
...SOUTHEAST GEORGIA...

CITY           SKY/WX    TMP DP  RH WIND       PRES   REMARKS
SAVANNAH ARPT  PTCLDY    49  27  42 NW7       30.23R
6HR MIN TEMP:  49; 6HR MAX TEMP:  61;

HUNTER AAF     CLEAR     51  28  40 NW7       30.21R
6HR MIN TEMP:  51; 6HR MAX TEMP:  61;

FORT STEWART   CLEAR     50  27  40 NW6       30.22R
6HR MIN TEMP:  49; 6HR MAX TEMP:  61;

STATESBORO     CLEAR     41  32  70 NW3       30.24R
SYLVANIA       CLEAR     46  32  57 CALM      30.25R
CLAXTON        FAIR      46  32  57 CALM      30.25R

...CSRA...CENTRAL AND FAR SOUTHEAST GEORGIA...

CITY           SKY/WX    TMP DP  RH WIND       PRES   REMARKS
THOMSON        CLEAR     47  29  49 NW3       30.30R
AUGUSTA-BUSH   CLEAR     42  25  50 NW6       30.25R
6HR MIN TEMP:  42; 6HR MAX TEMP:  58;

AUGUSTA-DANIEL CLEAR     52  22  30 W3        30.24R
SWAINSBORO     FAIR      46  19  34 CALM      30.26R
VIDALIA        CLEAR     48  30  49 NW5       30.25R
EASTMAN        FAIR      43  29  56 CALM      30.29R
HAZLEHURST     FAIR      51  29  42 NW5       30.25R
ALMA           MOCLDY    49  30  48 CALM      30.24R
6HR MIN TEMP:  48; 6HR MAX TEMP:  60;

WAYCROSS       MOCLDY    52  33  49 N5        30.25R
JESUP          FAIR      54  32  43 CALM      30.24R
BAXLEY         FAIR      50  32  50 NW3       30.24R
BRUNSWICK      PTCLDY    54  28  37 NW3       30.24R
SAINT SIMONS   PTCLDY    54  29  38 NW5       30.22R
6HR MIN TEMP:  54; 6HR MAX TEMP:  63;


$$

SCZ027-028-034-036>038-045-046-048>050-GAZ119-141-310100-
...LAKE AND SUPPLEMENTAL COASTAL OBSERVATIONS...

STATION/POSITION TIME  TEMP    WIND        PRES    WAVE   SWELL
                       AIR SEA DIR/SP/G            HT/PER HT/PER/DIR
                 (UTC) (F)     (DEG/KT/KT) (MB)    (FT/S) (FT/S/D)
UPR LAKE MARION  NOT AVBL
WINYAH BAY       2345   48     310/  6     1021.0R
LAKE MURRAY      2300   48     340/  3/  8 1023.0R
ACE BASIN NERRS  NOT AVBL
FORT PULASKI     0000   52 53  320/ 11/ 12 1023.7R
SAPELO ISLAND    0000   50     320/  6     1023.0

$$

ANZ835-935-AMZ111-154-330-350-352-354-370-450-454-472-310100-
...C-MAN AND BUOY OBSERVATIONS...

STATION/POSITION TIME  TEMP    WIND        PRES    WAVE   SWELL
                       AIR SEA DIR/SP/G            HT/PER HT/PER/DIR
                 (UTC) (F)     (DEG/KT/KT) (MB)    (FT/S) (FT/S/D)
BUOY 41004       2350   56 68  320/ 19/ 25 1021.5R   5/ 5   2/10
BUOY 41008       2350   55 54  350/ 10/ 12 1022.7R   2/10   2/ 70/10
FOLLY BEACH CMAN 0000   48     310/  4/  7 1023.8R
CAPERS NEARSHORE 2300   52     330/ 14/ 16   N/A
FRIPP NEARSHORE  2300   55     360/ 12/ 12 1021.4R


STATION/POSITION TIME  TEMP    WIND        PRES    WAVE   SWELL
                       AIR SEA DIR/SP/G            HT/PER HT/PER/DIR
                 (UTC) (F)     (DEG/KT/KT) (MB)    (FT/S) (FT/S/D)
5E ST. MARYS GA  2321      57                N/A     2/10
FRYING PAN BUOY  2350   50 62  330/ 21/ 27 1021.5R   6/ 5
BUOY 41025       2350   46 67  330/ 16/ 19 1018.1R   5/ 8   3/ 20/ 8
CAPE LOOKOUT NC  0000   46     300/ 17/ 20 1019.7R
BUOY 41002       2350   59 71  330/ 23/ 31 1016.8R  13/ 9   2/260/15
BUOY 41010       2320   66 73  320/ 19/ 25 1019.6R
ST AUGUSTINE FL  0000   58     360/ 11/ 13 1023.0R


$$


USA.gov is the U.S. government's official web portal to all federal, state and local government web resources and services.